Location: Antoign�
(47.0844°N, 0.1131°W)
Time: 19:36:47
(UTC+00:00)

USA 308 - Pass Details

Date: 03 March 2021
Orbit: 568 x 576 km, 54.0° (Epoch: 13 April)

Event Time Altitude Azimuth Distance (km) Brightness Sun altitude
Rises 18:25:08 0° 270° (W) 2,776 9.1 -7.0°
Reaches altitude 10° 18:27:32 10° 279° (W) 1,877 7.2 -7.4°
Maximum altitude 18:31:30 36° 348° (NNW) 907 4.0 -8.0°
Drops below altitude 10° 18:35:28 10° 56° (NE) 1,876 5.0 -8.7°
Enters shadow 18:35:58 - 58° (ENE) 2,060 5.2 -8.8°
